Weather History for Fort Myers, FL

Change the Weather History Date:

Sunday, June 16, 2013

  Actual Average Record
Temperature  
Mean Temperature 84 °F 83 °F  
Max Temperature 91 °F 92 °F 103 °F (1981)
Min Temperature 76 °F 74 °F 65 °F (1945)
Degree Days  
Heating Degree Days 0 0  
Month to date heating degree days 0 0  
Since 1 June heating degree days 0 0  
Since 1 July heating degree days 201 287  
Cooling Degree Days 19 18  
Month to date cooling degree days 259 276  
Year to date cooling degree days 1397 1342  
Since 1 June cooling degree days 259 276  
Growing Degree Days 32 (Base 50)    
Moisture  
Dew Point 74 °F    
Average Humidity 80    
Maximum Humidity 94    
Minimum Humidity 56    
Precipitation  
Precipitation 0.04 in 0.37 in 4.56 in (1996)
Month to date precipitation 4.57 4.85  
Year to date precipitation 14.73 16.65  
Sea Level Pressure  
Sea Level Pressure 30.06 in    
Wind  
Wind Speed 4 mph (East)    
Max Wind Speed 17 mph    
Max Gust Speed 23 mph    
Visibility 10 miles    
Events Rain , Thunderstorm    
T = Trace of Precipitation, MM = Missing Value Source: NWS Daily Summary

Daily Weather History Graph

Daily Weather History Graph

Search for Another Location

Airport:

Trip Planner

Search our weather history database for the weather conditions in past years. The results will help you decide how hot, cold, wet, or windy it might be!

Date:

Astronomy

Jun. 16, 2013 Rise Set
Actual Time 6:34 AM EDT 8:22 PM EDT
Civil Twilight 6:07 AM EDT 8:48 PM EDT
Nautical Twilight 5:36 AM EDT 9:20 PM EDT
Astronomical Twilight 5:02 AM EDT 9:53 PM EDT
Moon 1:29 PM EDT (6/16) 1:02 AM EDT (6/16)
Length of Visible Light 14h 40m
Length of Day
13h 48m
Waxing Crescent, 49% of the Moon is Illuminated
Jun 16
Waxing Crescent
Jun 16
First Quarter
Jun 23
Full
Jun 30
Last Quarter
Jul 8
New

Hourly Weather History & Observations

Time (EDT) Temp. Heat Index Dew Point Humidity Pressure Visibility Wind Dir Wind Speed Gust Speed Precip Events Conditions
12:53 AM 81.0 °F 85.8 °F 73.0 °F 77% 30.04 in 10.0 mi Calm Calm - N/A   Mostly Cloudy
1:53 AM 80.1 °F 84.5 °F 73.9 °F 81% 30.04 in 10.0 mi Calm Calm - N/A   Partly Cloudy
2:53 AM 78.1 °F - 73.9 °F 87% 30.04 in 10.0 mi Calm Calm - N/A   Clear
3:53 AM 77.0 °F - 73.9 °F 90% 30.02 in 10.0 mi Calm Calm - N/A   Clear
4:53 AM 77.0 °F - 73.9 °F 90% 30.03 in 10.0 mi Calm Calm - N/A   Clear
5:53 AM 75.9 °F - 73.9 °F 94% 30.04 in 10.0 mi East 3.5 mph - N/A   Clear
6:53 AM 75.9 °F - 73.9 °F 94% 30.05 in 9.0 mi Calm Calm - N/A   Clear
7:50 AM 77.0 °F - 73.4 °F 89% 30.06 in 8.0 mi East 3.5 mph - N/A   Scattered Clouds
7:53 AM 77.0 °F - 75.0 °F 94% 30.06 in 8.0 mi East 3.5 mph - N/A   Scattered Clouds
8:11 AM 77.0 °F - 75.2 °F 94% 30.06 in 9.0 mi East 4.6 mph - N/A   Mostly Cloudy
8:23 AM 78.8 °F - 75.2 °F 89% 30.07 in 10.0 mi East 4.6 mph - N/A   Scattered Clouds
8:53 AM 80.1 °F 85.1 °F 75.0 °F 85% 30.08 in 10.0 mi East 5.8 mph - N/A   Clear
9:53 AM 84.0 °F 91.9 °F 75.0 °F 74% 30.08 in 10.0 mi SE 5.8 mph - N/A   Clear
10:53 AM 88.0 °F 97.5 °F 75.0 °F 65% 30.07 in 10.0 mi Variable 4.6 mph - N/A   Mostly Cloudy
11:53 AM 89.1 °F 97.0 °F 73.0 °F 59% 30.07 in 10.0 mi SE 3.5 mph - N/A   Partly Cloudy
12:53 PM 90.0 °F 96.9 °F 72.0 °F 55% 30.06 in 10.0 mi WSW 5.8 mph - N/A   Partly Cloudy
1:53 PM 89.1 °F 96.0 °F 72.0 °F 57% 30.06 in 10.0 mi SW 6.9 mph - N/A   Overcast
2:53 PM 90.0 °F 96.9 °F 72.0 °F 55% 30.04 in 10.0 mi Calm Calm - N/A   Mostly Cloudy
3:32 PM 80.6 °F 86.2 °F 75.2 °F 84% 30.03 in 9.0 mi West 13.8 mph - 0.02 in Rain , Thunderstorm Light Thunderstorms and Rain
3:53 PM 80.1 °F 85.1 °F 75.0 °F 85% 30.04 in 10.0 mi SW 9.2 mph - 0.02 in Thunderstorm Thunderstorm
4:35 PM 80.6 °F 86.2 °F 75.2 °F 84% 30.03 in 10.0 mi West 8.1 mph - 0.00 in   Overcast
4:53 PM 80.1 °F 85.1 °F 75.0 °F 85% 30.03 in 10.0 mi West 5.8 mph - 0.00 in   Partly Cloudy
5:53 PM 86.0 °F 95.1 °F 75.0 °F 70% 30.03 in 10.0 mi WNW 8.1 mph - N/A   Clear
6:53 PM 87.1 °F 95.4 °F 73.9 °F 65% 30.02 in 10.0 mi West 5.8 mph - N/A   Clear
7:53 PM 84.9 °F 91.4 °F 73.0 °F 67% 30.03 in 10.0 mi WNW 6.9 mph - N/A   Clear
8:53 PM 84.0 °F 91.2 °F 73.9 °F 72% 30.04 in 10.0 mi WNW 5.8 mph - N/A   Clear
9:53 PM 82.9 °F 90.2 °F 75.0 °F 77% 30.06 in 10.0 mi North 3.5 mph - N/A Thunderstorm Partly Cloudy
10:13 PM 82.4 °F 89.5 °F 75.2 °F 79% 30.06 in 10.0 mi North 3.5 mph - N/A   Mostly Cloudy
10:29 PM 82.4 °F 89.5 °F 75.2 °F 79% 30.09 in 10.0 mi ESE 12.7 mph - N/A Thunderstorm Overcast
10:42 PM 78.8 °F - 71.6 °F 78% 30.09 in 10.0 mi SE 12.7 mph 23.0 mph N/A Thunderstorm Overcast
10:53 PM 78.1 °F - 72.0 °F 81% 30.10 in 10.0 mi SE 10.4 mph - N/A Thunderstorm Overcast
10:56 PM 78.8 °F - 71.6 °F 78% 30.09 in 10.0 mi ESE 9.2 mph - N/A   Overcast
11:14 PM 75.2 °F - 73.4 °F 94% 30.09 in 8.0 mi ENE 5.8 mph - 0.02 in Rain , Thunderstorm Light Thunderstorms and Rain
11:24 PM 75.2 °F - 73.4 °F 94% 30.08 in 10.0 mi NE 9.2 mph - 0.02 in Thunderstorm Thunderstorm
11:53 PM 75.9 °F - 72.0 °F 87% 30.08 in 10.0 mi Calm Calm - 0.02 in   Clear